AUA9096 LGKR-LOWW

Flight info

Callsign AUA9096
Flight time 1h 26m
Altitude 32000
Route OLGAT DCT CRAYE/N0447F360 DCT GISAM DCT NETKO DCT TIVNU DCT MOSAV DCT OBUTI OBUTI2W
Aircraft A321/M-SDE3FGHIRWY/LB1

Departure

Time 2026-04-25 09:49
Airport Corfu Ioannis Kapodistrias International Airport (LGKR)

Arrival

Time 2026-04-25 11:15
Airport Vienna International Airport (LOWW)
Time Latitude Longitude Altitude Speed Heading
2026-04-25 09:07 39.60759 19.91319 19 ft 0 kts 79°
2026-04-25 09:33 39.60757 19.91303 18 ft 4 kts 79°
2026-04-25 09:33 39.60752 19.91269 18 ft 4 kts 84°
2026-04-25 09:34 39.60752 19.91235 18 ft 4 kts 102°
2026-04-25 09:34 39.60761 19.91205 21 ft 4 kts 140°
2026-04-25 09:34 39.60772 19.91196 22 ft 0 kts 165°
2026-04-25 09:38 39.60756 19.91202 18 ft 6 kts 166°
2026-04-25 09:38 39.60704 19.91216 20 ft 7 kts 168°
2026-04-25 09:38 39.60656 19.91230 18 ft 7 kts 167°
2026-04-25 09:39 39.60613 19.91230 19 ft 6 kts 199°
2026-04-25 09:39 39.60599 19.91218 20 ft 0 kts 218°
2026-04-25 09:44 39.60598 19.91217 20 ft 2 kts 218°
2026-04-25 09:45 39.60559 19.91181 20 ft 12 kts 213°
2026-04-25 09:45 39.60462 19.91147 21 ft 16 kts 174°
2026-04-25 09:45 39.60326 19.91179 20 ft 23 kts 168°
2026-04-25 09:45 39.60166 19.91221 22 ft 24 kts 168°
2026-04-25 09:46 39.60001 19.91263 21 ft 25 kts 168°
2026-04-25 09:46 39.59815 19.91312 22 ft 29 kts 168°
2026-04-25 09:46 39.59616 19.91364 19 ft 29 kts 168°
2026-04-25 09:46 39.59426 19.91412 17 ft 27 kts 169°
2026-04-25 09:47 39.59250 19.91460 18 ft 18 kts 167°
2026-04-25 09:47 39.59175 19.91513 17 ft 10 kts 162°
2026-04-25 09:47 39.59154 19.91480 17 ft 3 kts 316°
2026-04-25 09:47 39.59176 19.91476 17 ft 5 kts 352°
2026-04-25 09:48 39.59198 19.91470 18 ft 0 kts 348°
2026-04-25 09:48 39.59231 19.91461 18 ft 17 kts 348°
2026-04-25 09:48 39.59621 19.91363 19 ft 94 kts 349°
2026-04-25 09:49 39.60467 19.91142 21 ft 152 kts 348°
2026-04-25 09:49 39.61563 19.90850 523 ft 158 kts 349°
2026-04-25 09:49 39.62634 19.90587 1249 ft 157 kts 348°
2026-04-25 09:49 39.63747 19.90315 1698 ft 172 kts 349°
2026-04-25 09:50 39.64921 19.89720 1945 ft 194 kts 322°
2026-04-25 09:50 39.65717 19.88225 2221 ft 214 kts 286°
2026-04-25 09:50 39.65807 19.86263 2854 ft 221 kts 270°
2026-04-25 09:50 39.65777 19.84295 3626 ft 222 kts 270°
2026-04-25 09:51 39.65746 19.82287 4406 ft 223 kts 270°
2026-04-25 09:51 39.65778 19.80269 5156 ft 225 kts 281°
2026-04-25 09:51 39.66343 19.78374 5750 ft 234 kts 305°
2026-04-25 09:51 39.67482 19.76740 6059 ft 256 kts 315°
2026-04-25 09:52 39.68780 19.75040 6559 ft 270 kts 315°
2026-04-25 09:52 39.70112 19.73281 7266 ft 275 kts 315°
2026-04-25 09:52 39.71460 19.71491 8004 ft 279 kts 316°
2026-04-25 09:52 39.72826 19.69674 8752 ft 283 kts 316°
2026-04-25 09:53 39.74209 19.67830 9487 ft 287 kts 316°
2026-04-25 09:53 39.75608 19.65960 10187 ft 291 kts 316°
2026-04-25 09:53 39.77054 19.64029 10400 ft 313 kts 316°
2026-04-25 09:53 39.78627 19.61930 10529 ft 335 kts 316°
2026-04-25 09:54 39.80303 19.59690 10716 ft 353 kts 316°
2026-04-25 09:54 39.82033 19.57368 11221 ft 360 kts 316°
2026-04-25 09:54 39.83782 19.55014 11832 ft 364 kts 316°
2026-04-25 09:54 39.85552 19.52630 12438 ft 368 kts 316°
2026-04-25 09:55 39.87340 19.50222 13048 ft 372 kts 316°
2026-04-25 09:55 39.89147 19.47793 13656 ft 375 kts 316°
2026-04-25 09:55 39.90977 19.45340 14206 ft 379 kts 316°
2026-04-25 09:55 39.92821 19.42867 14719 ft 382 kts 316°
2026-04-25 09:56 39.94653 19.40406 15225 ft 385 kts 316°
2026-04-25 09:56 39.96525 19.37884 15740 ft 388 kts 316°
2026-04-25 09:56 39.98408 19.35346 16243 ft 391 kts 317°
2026-04-25 09:56 40.00309 19.32782 16742 ft 394 kts 317°
2026-04-25 09:57 40.02221 19.30204 17213 ft 397 kts 317°
2026-04-25 09:57 40.04149 19.27603 17687 ft 400 kts 317°
2026-04-25 09:57 40.06091 19.24980 18123 ft 403 kts 317°
2026-04-25 09:57 40.08041 19.22340 18537 ft 406 kts 317°
2026-04-25 09:58 40.09980 19.19713 18910 ft 408 kts 317°
2026-04-25 09:58 40.11951 19.17039 19287 ft 410 kts 317°
2026-04-25 09:58 40.13938 19.14345 19662 ft 412 kts 316°
2026-04-25 09:58 40.15931 19.11632 20029 ft 415 kts 316°
2026-04-25 09:59 40.17933 19.08907 20409 ft 417 kts 316°
2026-04-25 09:59 40.19950 19.06166 20798 ft 419 kts 316°
2026-04-25 09:59 40.21976 19.03414 21194 ft 422 kts 316°
2026-04-25 09:59 40.24106 19.00776 21590 ft 422 kts 324°
2026-04-25 10:00 40.26526 18.98620 21973 ft 420 kts 334°
2026-04-25 10:00 40.29090 18.96879 22369 ft 422 kts 335°
2026-04-25 10:00 40.31706 18.95119 22780 ft 424 kts 335°
2026-04-25 10:00 40.34334 18.93340 23182 ft 427 kts 335°
2026-04-25 10:01 40.36979 18.91543 23579 ft 429 kts 335°
2026-04-25 10:01 40.39634 18.89737 23925 ft 431 kts 335°
2026-04-25 10:01 40.42299 18.87919 24258 ft 433 kts 335°
2026-04-25 10:01 40.44977 18.86085 24587 ft 435 kts 335°
2026-04-25 10:02 40.46754 18.84869 24810 ft 436 kts 335°
2026-04-25 10:02 40.50358 18.82406 25263 ft 438 kts 335°
2026-04-25 10:02 40.53028 18.80580 25581 ft 439 kts 335°
2026-04-25 10:02 40.55745 18.78718 25911 ft 441 kts 335°
2026-04-25 10:03 40.58469 18.76847 26240 ft 443 kts 335°
2026-04-25 10:03 40.61206 18.74967 26567 ft 444 kts 335°
2026-04-25 10:03 40.63950 18.73078 26889 ft 446 kts 335°
2026-04-25 10:03 40.66709 18.71181 27211 ft 448 kts 335°
2026-04-25 10:04 40.68539 18.69925 27400 ft 449 kts 335°
2026-04-25 10:04 40.72214 18.67403 27792 ft 451 kts 335°
2026-04-25 10:04 40.75004 18.65488 28064 ft 452 kts 335°
2026-04-25 10:04 40.77797 18.63567 28324 ft 454 kts 335°
2026-04-25 10:05 40.79662 18.62283 28496 ft 455 kts 335°
2026-04-25 10:05 40.82467 18.60347 28742 ft 456 kts 335°
2026-04-25 10:05 40.84329 18.59057 28897 ft 457 kts 335°
2026-04-25 10:05 40.87147 18.57103 29120 ft 458 kts 335°
2026-04-25 10:06 40.89966 18.55151 29429 ft 456 kts 335°
2026-04-25 10:06 40.92772 18.53209 29755 ft 455 kts 335°
2026-04-25 10:06 40.96483 18.50636 30166 ft 454 kts 335°
2026-04-25 10:06 40.99273 18.48696 30429 ft 453 kts 335°
2026-04-25 10:07 41.02059 18.46755 30688 ft 452 kts 335°
2026-04-25 10:07 41.03902 18.45470 30863 ft 452 kts 335°
2026-04-25 10:07 41.06681 18.43536 31119 ft 451 kts 335°
2026-04-25 10:07 41.09456 18.41603 31384 ft 451 kts 335°
2026-04-25 10:08 41.12230 18.39672 31639 ft 450 kts 335°
2026-04-25 10:08 41.15002 18.37740 31902 ft 450 kts 335°
2026-04-25 10:08 41.17770 18.35806 32163 ft 449 kts 335°
2026-04-25 10:08 41.20532 18.33872 32429 ft 449 kts 335°
2026-04-25 10:09 41.23296 18.31935 32674 ft 449 kts 335°
2026-04-25 10:09 41.26054 18.30000 32933 ft 448 kts 335°
2026-04-25 10:09 41.28776 18.28085 33197 ft 448 kts 335°
2026-04-25 10:09 41.31526 18.26139 33451 ft 448 kts 335°
2026-04-25 10:10 41.34277 18.24192 33692 ft 448 kts 335°
2026-04-25 10:10 41.37027 18.22249 33958 ft 447 kts 335°
2026-04-25 10:10 41.39776 18.20312 34190 ft 447 kts 335°
2026-04-25 10:10 41.42525 18.18382 34404 ft 447 kts 335°
2026-04-25 10:11 41.45272 18.16448 34623 ft 446 kts 335°
2026-04-25 10:11 41.47978 18.14539 34838 ft 446 kts 335°
2026-04-25 10:11 41.50693 18.12543 35046 ft 447 kts 330°
2026-04-25 10:11 41.53290 18.10258 35247 ft 447 kts 329°
2026-04-25 10:12 41.55880 18.07960 35453 ft 447 kts 329°
2026-04-25 10:12 41.58466 18.05661 35664 ft 446 kts 329°
2026-04-25 10:12 41.63632 18.01082 36040 ft 446 kts 329°
2026-04-25 10:13 41.66216 17.98795 36092 ft 444 kts 329°
2026-04-25 10:13 41.71316 17.94260 36094 ft 442 kts 329°
2026-04-25 10:14 41.76432 17.89687 36094 ft 442 kts 329°
2026-04-25 10:14 41.81548 17.85112 36093 ft 442 kts 329°
2026-04-25 10:15 41.86661 17.80543 36093 ft 442 kts 329°
2026-04-25 10:15 41.92009 17.76747 36100 ft 436 kts 345°
2026-04-25 10:16 41.97911 17.75342 36097 ft 430 kts 359°
2026-04-25 10:16 42.03890 17.74859 36106 ft 431 kts 359°
2026-04-25 10:17 42.09871 17.74354 36108 ft 431 kts 358°
2026-04-25 10:17 42.15820 17.73835 36112 ft 431 kts 358°
2026-04-25 10:18 42.21810 17.73311 36110 ft 431 kts 358°
2026-04-25 10:18 42.27799 17.72797 36111 ft 431 kts 358°
2026-04-25 10:19 42.33791 17.72287 36111 ft 431 kts 358°
2026-04-25 10:19 42.39739 17.71771 36117 ft 431 kts 358°
2026-04-25 10:20 42.45732 17.71262 36115 ft 431 kts 358°
2026-04-25 10:20 42.51727 17.70748 36116 ft 432 kts 358°
2026-04-25 10:21 42.57719 17.70231 36110 ft 432 kts 358°
2026-04-25 10:21 42.63720 17.69707 36114 ft 432 kts 358°
2026-04-25 10:22 42.69677 17.69190 36106 ft 432 kts 358°
2026-04-25 10:22 42.75683 17.68671 36106 ft 432 kts 358°
2026-04-25 10:23 42.81686 17.68148 36106 ft 432 kts 358°
2026-04-25 10:23 42.87694 17.67617 36105 ft 433 kts 358°
2026-04-25 10:24 42.93664 17.67093 36104 ft 433 kts 358°
2026-04-25 10:24 42.99673 17.66566 36098 ft 433 kts 358°
2026-04-25 10:25 43.05664 17.65730 36090 ft 435 kts 349°
2026-04-25 10:25 43.11565 17.63928 36092 ft 435 kts 349°
2026-04-25 10:26 43.17477 17.62139 36082 ft 435 kts 349°
2026-04-25 10:26 43.23343 17.60354 36085 ft 435 kts 349°
2026-04-25 10:27 43.29249 17.58540 36083 ft 435 kts 349°
2026-04-25 10:27 43.35155 17.56740 36090 ft 435 kts 349°
2026-04-25 10:28 43.41064 17.54933 36098 ft 435 kts 349°
2026-04-25 10:28 43.46923 17.53128 36100 ft 434 kts 349°
2026-04-25 10:29 43.52817 17.51311 36104 ft 434 kts 349°
2026-04-25 10:29 43.58710 17.49499 36107 ft 433 kts 349°
2026-04-25 10:30 43.64594 17.47680 36109 ft 433 kts 349°
2026-04-25 10:30 43.70433 17.45870 36118 ft 433 kts 349°
2026-04-25 10:31 43.76305 17.44052 36113 ft 432 kts 349°
2026-04-25 10:31 43.82177 17.42234 36117 ft 432 kts 349°
2026-04-25 10:32 43.88036 17.40412 36114 ft 432 kts 349°
2026-04-25 10:32 43.93855 17.38584 36113 ft 432 kts 349°
2026-04-25 10:33 43.99712 17.36745 36108 ft 431 kts 349°
2026-04-25 10:33 44.05569 17.34920 36107 ft 431 kts 349°
2026-04-25 10:34 44.11424 17.33091 36115 ft 431 kts 349°
2026-04-25 10:34 44.17237 17.31261 36109 ft 431 kts 349°
2026-04-25 10:35 44.23078 17.29412 36106 ft 431 kts 349°
2026-04-25 10:35 44.28921 17.27561 36105 ft 431 kts 349°
2026-04-25 10:36 44.34761 17.25713 36104 ft 430 kts 349°
2026-04-25 10:36 44.40562 17.23890 36103 ft 430 kts 349°
2026-04-25 10:37 44.46398 17.22047 36098 ft 430 kts 349°
2026-04-25 10:37 44.52226 17.20191 36096 ft 430 kts 349°
2026-04-25 10:38 44.58049 17.18322 36088 ft 429 kts 349°
2026-04-25 10:38 44.63865 17.16452 36093 ft 429 kts 349°
2026-04-25 10:39 44.69645 17.14607 36086 ft 429 kts 349°
2026-04-25 10:39 44.75471 17.12747 36090 ft 429 kts 349°
2026-04-25 10:40 44.81292 17.10871 36096 ft 429 kts 349°
2026-04-25 10:40 44.87105 17.08988 36095 ft 428 kts 349°
2026-04-25 10:41 44.92876 17.07117 36090 ft 428 kts 349°
2026-04-25 10:41 44.98688 17.05325 36092 ft 427 kts 352°
2026-04-25 10:42 45.04556 17.04042 36090 ft 426 kts 354°
2026-04-25 10:42 45.10439 17.02947 36090 ft 426 kts 354°
2026-04-25 10:43 45.16307 17.01779 36082 ft 426 kts 354°
2026-04-25 10:43 45.22123 17.00536 36080 ft 426 kts 353°
2026-04-25 10:44 45.27980 16.99264 36078 ft 425 kts 353°
2026-04-25 10:44 45.33829 16.97994 36083 ft 425 kts 354°
2026-04-25 10:45 45.39675 16.96743 36084 ft 425 kts 354°
2026-04-25 10:45 45.45478 16.95502 36082 ft 424 kts 354°
2026-04-25 10:46 45.51315 16.94246 36080 ft 424 kts 354°
2026-04-25 10:46 45.57031 16.92189 36082 ft 428 kts 339°
2026-04-25 10:47 45.62267 16.88187 36079 ft 430 kts 334°
2026-04-25 10:47 45.67499 16.84048 36077 ft 430 kts 334°
2026-04-25 10:48 45.72728 16.79907 36075 ft 429 kts 334°
2026-04-25 10:48 45.77947 16.75750 36074 ft 429 kts 334°
2026-04-25 10:49 45.83162 16.71573 36067 ft 429 kts 334°
2026-04-25 10:49 45.88336 16.67429 36071 ft 429 kts 334°
2026-04-25 10:50 45.93547 16.63256 36069 ft 429 kts 334°
2026-04-25 10:50 45.98754 16.59086 36066 ft 428 kts 334°
2026-04-25 10:51 46.03923 16.54936 36068 ft 428 kts 334°
2026-04-25 10:51 46.09116 16.50747 36071 ft 428 kts 334°
2026-04-25 10:52 46.14309 16.46546 36067 ft 428 kts 334°
2026-04-25 10:52 46.19499 16.42343 36074 ft 428 kts 334°
2026-04-25 10:53 46.24676 16.38136 36071 ft 427 kts 334°
2026-04-25 10:53 46.29817 16.33953 36070 ft 427 kts 334°
2026-04-25 10:54 46.34985 16.29742 36059 ft 426 kts 335°
2026-04-25 10:54 46.40454 16.26801 36055 ft 417 kts 352°
2026-04-25 10:55 46.46174 16.25460 36003 ft 417 kts 353°
2026-04-25 10:55 46.49036 16.24782 35741 ft 417 kts 353°
2026-04-25 10:55 46.51856 16.24106 35497 ft 417 kts 353°
2026-04-25 10:55 46.54720 16.23422 35246 ft 418 kts 353°
2026-04-25 10:56 46.57594 16.22739 34997 ft 419 kts 353°
2026-04-25 10:56 46.60472 16.22055 34753 ft 419 kts 354°
2026-04-25 10:56 46.63352 16.21370 34516 ft 420 kts 354°
2026-04-25 10:56 46.66238 16.20685 34273 ft 421 kts 353°
2026-04-25 10:57 46.69131 16.19996 34027 ft 421 kts 353°
2026-04-25 10:57 46.72025 16.19307 33754 ft 422 kts 354°
2026-04-25 10:57 46.74884 16.18629 33309 ft 423 kts 353°
2026-04-25 10:57 46.77808 16.17936 32338 ft 427 kts 353°
2026-04-25 10:58 46.80745 16.17234 31471 ft 429 kts 353°
2026-04-25 10:58 46.83697 16.16522 30578 ft 431 kts 353°
2026-04-25 10:58 46.86681 16.15801 29470 ft 437 kts 352°
2026-04-25 10:58 46.89688 16.15073 28467 ft 439 kts 352°
2026-04-25 10:59 46.92705 16.14343 27492 ft 440 kts 352°
2026-04-25 10:59 46.95705 16.13618 26900 ft 433 kts 352°
2026-04-25 10:59 46.98629 16.12914 26197 ft 430 kts 352°
2026-04-25 10:59 47.01564 16.12207 25521 ft 426 kts 352°
2026-04-25 11:00 47.04476 16.11504 24847 ft 422 kts 352°
2026-04-25 11:00 47.07366 16.10806 24181 ft 419 kts 352°
2026-04-25 11:00 47.10228 16.10115 23519 ft 415 kts 352°
2026-04-25 11:00 47.13069 16.09426 22817 ft 411 kts 352°
2026-04-25 11:01 47.15865 16.08748 22208 ft 404 kts 352°
2026-04-25 11:01 47.18613 16.08083 21618 ft 397 kts 352°
2026-04-25 11:01 47.21306 16.07428 21055 ft 389 kts 352°
2026-04-25 11:01 47.23954 16.06782 20522 ft 382 kts 351°
2026-04-25 11:02 47.26511 16.06159 19995 ft 374 kts 351°
2026-04-25 11:02 47.29059 16.05538 19504 ft 369 kts 351°
2026-04-25 11:02 47.31580 16.04925 19014 ft 366 kts 351°
2026-04-25 11:02 47.34092 16.04334 18558 ft 363 kts 354°
2026-04-25 11:03 47.36621 16.04218 18048 ft 372 kts
2026-04-25 11:03 47.39211 16.04797 17469 ft 380 kts 13°
2026-04-25 11:03 47.41730 16.05981 16898 ft 380 kts 18°
2026-04-25 11:03 47.44226 16.07228 16340 ft 377 kts 18°
2026-04-25 11:04 47.46672 16.08448 15790 ft 374 kts 17°
2026-04-25 11:04 47.49129 16.09668 15254 ft 371 kts 17°
2026-04-25 11:04 47.51565 16.10875 14721 ft 368 kts 17°
2026-04-25 11:04 47.53169 16.11672 14370 ft 366 kts 17°
2026-04-25 11:05 47.56377 16.13266 13665 ft 362 kts 17°
2026-04-25 11:05 47.58752 16.14447 13087 ft 358 kts 17°
2026-04-25 11:05 47.61103 16.15619 12511 ft 355 kts 17°
2026-04-25 11:05 47.63435 16.16790 11947 ft 352 kts 18°
2026-04-25 11:06 47.65584 16.18478 11448 ft 350 kts 35°
2026-04-25 11:06 47.67270 16.20994 10966 ft 348 kts 46°
2026-04-25 11:06 47.68834 16.23710 10481 ft 343 kts 46°
2026-04-25 11:06 47.70370 16.26390 9996 ft 339 kts 46°
2026-04-25 11:07 47.71883 16.29044 9483 ft 336 kts 46°
2026-04-25 11:07 47.73382 16.31674 8953 ft 331 kts 46°
2026-04-25 11:07 47.74860 16.34268 8436 ft 327 kts 46°
2026-04-25 11:07 47.76319 16.36833 7928 ft 322 kts 46°
2026-04-25 11:08 47.77760 16.39364 7427 ft 320 kts 46°
2026-04-25 11:08 47.79189 16.41876 6942 ft 313 kts 46°
2026-04-25 11:08 47.80524 16.44235 6535 ft 290 kts 45°
2026-04-25 11:08 47.81766 16.46441 6263 ft 266 kts 45°
2026-04-25 11:09 47.82931 16.48503 5982 ft 258 kts 45°
2026-04-25 11:09 47.84077 16.50521 5689 ft 254 kts 44°
2026-04-25 11:09 47.85217 16.52522 5402 ft 252 kts 45°
2026-04-25 11:09 47.86355 16.54521 5125 ft 253 kts 45°
2026-04-25 11:10 47.87490 16.56518 4848 ft 252 kts 46°
2026-04-25 11:10 47.88233 16.57829 4661 ft 249 kts 45°
2026-04-25 11:10 47.89712 16.60442 4286 ft 250 kts 45°
2026-04-25 11:10 47.90829 16.62409 3992 ft 248 kts 43°
2026-04-25 11:11 47.92136 16.63981 3734 ft 238 kts 24°
2026-04-25 11:11 47.93666 16.64790 3560 ft 232 kts
2026-04-25 11:11 47.95230 16.64824 3313 ft 217 kts 348°
2026-04-25 11:11 47.96620 16.64296 3063 ft 198 kts 341°
2026-04-25 11:12 47.97883 16.63764 2814 ft 180 kts 341°
2026-04-25 11:12 47.99066 16.63265 2570 ft 175 kts 341°
2026-04-25 11:12 48.00204 16.62786 2343 ft 165 kts 340°
2026-04-25 11:12 48.01243 16.62350 2126 ft 150 kts 340°
2026-04-25 11:13 48.02218 16.61939 1940 ft 142 kts 340°
2026-04-25 11:13 48.03149 16.61546 1757 ft 138 kts 339°
2026-04-25 11:13 48.04075 16.61158 1531 ft 140 kts 340°
2026-04-25 11:13 48.05030 16.60761 1346 ft 144 kts 340°
2026-04-25 11:14 48.05977 16.60344 1188 ft 142 kts 340°
2026-04-25 11:14 48.06927 16.59950 1030 ft 141 kts 342°
2026-04-25 11:14 48.07867 16.59557 832 ft 138 kts 340°
2026-04-25 11:14 48.08756 16.59186 679 ft 131 kts 339°
2026-04-25 11:15 48.09586 16.58825 612 ft 113 kts 345°
2026-04-25 11:15 48.10180 16.58577 614 ft 63 kts 344°
2026-04-25 11:15 48.10484 16.58448 619 ft 37 kts 343°
2026-04-25 11:15 48.10703 16.58314 617 ft 28 kts 323°
2026-04-25 11:16 48.10899 16.58022 613 ft 17 kts 317°
2026-04-25 11:16 48.11001 16.57951 620 ft 16 kts 343°
2026-04-25 11:16 48.11109 16.57903 625 ft 17 kts 343°
2026-04-25 11:17 48.11234 16.57852 618 ft 23 kts 345°
2026-04-25 11:17 48.11389 16.57787 623 ft 23 kts 344°
2026-04-25 11:17 48.11546 16.57720 613 ft 24 kts 344°
2026-04-25 11:17 48.11705 16.57654 621 ft 22 kts 345°
2026-04-25 11:18 48.11813 16.57606 612 ft 15 kts 330°
2026-04-25 11:18 48.11821 16.57468 612 ft 14 kts 255°
2026-04-25 11:18 48.11819 16.57324 623 ft 14 kts 293°
2026-04-25 11:18 48.11851 16.57220 615 ft 10 kts 296°
2026-04-25 11:19 48.11896 16.57152 613 ft 9 kts 303°
2026-04-25 11:19 48.11926 16.57063 620 ft 10 kts 297°
2026-04-25 11:19 48.11954 16.56980 618 ft 6 kts 296°
2026-04-25 11:19 48.11984 16.56970 610 ft 4 kts 12°
2026-04-25 11:20 48.12003 16.56981 613 ft 0 kts 24°